| time (UTC) | temp F | wind direction | speed MPH | gust MPH | rain 1hr in | rain 24hr in | rain mn in | humidity % | barometer mb |
| 20260905225521 | 71 | 0.0 | 0.0 | 0.00 | 0.00 | 0.00 | 77 | 1013.9 | |
| 20260905224521 | 72 | 0.0 | 0.0 | 0.00 | 0.00 | 0.00 | 77 | 1014.1 | |
| 20260905223521 | 72 | 0.0 | 1.0 | 0.00 | 0.00 | 0.00 | 76 | 1014.0 | |
| 20260905222520 | 72 | 0.0 | 1.0 | 0.00 | 0.00 | 0.00 | 76 | 1013.7 | |
| 20260905221520 | 73 | 0.0 | 2.0 | 0.00 | 0.00 | 0.00 | 75 | 1013.7 | |
| 20260905220521 | 73 | 0.0 | 3.0 | 0.00 | 0.00 | 0.00 | 75 | 1013.6 | |
| 20260905215521 | 73 | 0.0 | 3.0 | 0.00 | 0.00 | 0.00 | 74 | 1013.6 | |
| 20260905214520 | 73 | 0.0 | 1.0 | 0.00 | 0.00 | 0.00 | 73 | 1013.5 | |
| 20260905213521 | 73 | 0.0 | 4.0 | 0.00 | 0.00 | 0.00 | 73 | 1013.4 | |
| 20260905212520 | 74 | 0.0 | 2.0 | 0.00 | 0.00 | 0.00 | 72 | 1013.5 | |
| 20260905211521 | 74 | 0.0 | 4.0 | 0.00 | 0.00 | 0.00 | 73 | 1013.3 | |
| 20260905210522 | 74 | 225 | 1.0 | 4.0 | 0.00 | 0.00 | 0.00 | 71 | 1013.3 |
| 20260905205521 | 75 | 135 | 1.0 | 3.0 | 0.00 | 0.00 | 0.00 | 70 | 1013.1 |
| 20260905204521 | 75 | 0.0 | 2.0 | 0.00 | 0.00 | 0.00 | 70 | 1013.3 | |
| 20260905203521 | 75 | 0.0 | 6.0 | 0.00 | 0.00 | 0.00 | 68 | 1013.2 | |
| 20260905202540 | 76 | 248 | 1.0 | 9.0 | 0.00 | 0.00 | 0.00 | 67 | 1013.3 |
| 20260905201520 | 77 | 68 | 1.0 | 5.0 | 0.00 | 0.00 | 0.00 | 65 | 1013.4 |
| 20260905200521 | 78 | 0.0 | 2.0 | 0.00 | 0.00 | 0.00 | 64 | 1013.3 | |
| 20260905195541 | 79 | 0.0 | 4.0 | 0.00 | 0.00 | 0.00 | 63 | 1013.4 | |
| 20260905194520 | 79 | 68 | 1.0 | 6.0 | 0.00 | 0.00 | 0.00 | 62 | 1013.4 |
| 20260905193521 | 79 | 45 | 1.0 | 5.0 | 0.00 | 0.00 | 0.00 | 61 | 1013.5 |
| 20260905192520 | 80 | 0.0 | 2.0 | 0.00 | 0.00 | 0.00 | 60 | 1013.5 | |
| 20260905191520 | 80 | 270 | 1.0 | 8.0 | 0.00 | 0.00 | 0.00 | 59 | 1013.5 |
| 20260905190601 | 80 | 248 | 2.0 | 5.0 | 0.00 | 0.00 | 0.00 | 60 | 1013.6 |
| 20260905185520 | 80 | 113 | 1.0 | 4.0 | 0.00 | 0.00 | 0.00 | 62 | 1013.6 |
| 20260905184520 | 80 | 0.0 | 4.0 | 0.00 | 0.00 | 0.00 | 61 | 1013.5 | |
| 20260905183521 | 80 | 270 | 2.0 | 7.0 | 0.00 | 0.00 | 0.00 | 58 | 1013.5 |
| 20260905182520 | 80 | 315 | 1.0 | 5.0 | 0.00 | 0.00 | 0.00 | 60 | 1013.4 |
| 20260905181541 | 80 | 248 | 1.0 | 5.0 | 0.00 | 0.00 | 0.00 | 59 | 1013.4 |
| 20260905180600 | 81 | 248 | 1.0 | 10.0 | 0.00 | 0.00 | 0.00 | 60 | 1013.3 |
| 20260905175521 | 80 | 180 | 1.0 | 4.0 | 0.00 | 0.00 | 0.00 | 62 | 1013.4 |
| 20260905174540 | 80 | 135 | 2.0 | 6.0 | 0.00 | 0.00 | 0.00 | 64 | 1013.5 |
| 20260905173541 | 79 | 248 | 1.0 | 4.0 | 0.00 | 0.00 | 0.00 | 64 | 1013.4 |
| 20260905172520 | 79 | 248 | 1.0 | 7.0 | 0.00 | 0.00 | 0.00 | 62 | 1013.5 |
| 20260905171520 | 78 | 270 | 1.0 | 7.0 | 0.00 | 0.00 | 0.00 | 65 | 1013.5 |
| 20260905170520 | 78 | 248 | 2.0 | 5.0 | 0.00 | 0.00 | 0.00 | 63 | 1013.4 |
| 20260905165521 | 78 | 248 | 2.0 | 7.0 | 0.00 | 0.00 | 0.00 | 63 | 1013.4 |
| 20260905164520 | 78 | 338 | 2.0 | 8.0 | 0.00 | 0.00 | 0.00 | 62 | 1013.4 |
| 20260905163520 | 78 | 225 | 1.0 | 5.0 | 0.00 | 0.00 | 0.00 | 61 | 1013.4 |
| 20260905162520 | 78 | 248 | 1.0 | 5.0 | 0.00 | 0.00 | 0.00 | 62 | 1013.6 |
| 20260905161520 | 77 | 45 | 1.0 | 5.0 | 0.00 | 0.00 | 0.00 | 67 | 1013.6 |
| 20260905160521 | 76 | 23 | 1.0 | 6.0 | 0.00 | 0.00 | 0.00 | 71 | 1013.5 |
| 20260905155540 | 75 | 68 | 1.0 | 4.0 | 0.00 | 0.00 | 0.00 | 74 | 1013.7 |
| 20260905154520 | 74 | 248 | 2.0 | 7.0 | 0.00 | 0.01 | 0.00 | 74 | 1013.8 |
| 20260905153520 | 72 | 68 | 1.0 | 6.0 | 0.00 | 0.01 | 0.00 | 80 | 1013.9 |
| 20260905152520 | 71 | 68 | 2.0 | 5.0 | 0.00 | 0.01 | 0.00 | 82 | 1013.8 |
| 20260905151520 | 70 | 45 | 2.0 | 6.0 | 0.00 | 0.01 | 0.00 | 84 | 1013.7 |
| 20260905150521 | 69 | 90 | 2.0 | 10.0 | 0.00 | 0.01 | 0.00 | 84 | 1013.7 |
| 20260905145520 | 69 | 45 | 2.0 | 7.0 | 0.00 | 0.01 | 0.00 | 86 | 1013.7 |
| 20260905144520 | 68 | 68 | 1.0 | 6.0 | 0.00 | 0.01 | 0.00 | 88 | 1013.6 |
| 20260905143520 | 68 | 135 | 1.0 | 5.0 | 0.00 | 0.01 | 0.00 | 89 | 1013.6 |
| 20260905142520 | 67 | 135 | 1.0 | 7.0 | 0.00 | 0.01 | 0.00 | 92 | 1013.6 |
| 20260905141520 | 67 | 0.0 | 3.0 | 0.00 | 0.01 | 0.00 | 94 | 1013.6 | |
| 20260905140520 | 66 | 45 | 1.0 | 6.0 | 0.00 | 0.01 | 0.00 | 95 | 1013.6 |
| 20260905135520 | 66 | 0.0 | 3.0 | 0.00 | 0.01 | 0.00 | 96 | 1013.5 | |
| 20260905134520 | 65 | 45 | 2.0 | 6.0 | 0.00 | 0.01 | 0.00 | 96 | 1013.6 |
| 20260905133520 | 65 | 68 | 1.0 | 5.0 | 0.00 | 0.01 | 0.00 | 96 | 1013.5 |
| 20260905132520 | 65 | 68 | 1.0 | 5.0 | 0.00 | 0.01 | 0.00 | 96 | 1013.5 |
| 20260905131520 | 65 | 0.0 | 0.0 | 0.00 | 0.01 | 0.00 | 96 | 1013.5 | |
| 20260905130520 | 64 | 0.0 | 4.0 | 0.00 | 0.01 | 0.00 | 96 | 1013.6 | |
| 20260905125520 | 63 | 0.0 | 2.0 | 0.00 | 0.01 | 0.00 | 96 | 1013.7 | |
| 20260905124520 | 62 | 0.0 | 0.0 | 0.00 | 0.01 | 0.00 | 96 | 1013.8 | |
| 20260905123520 | 62 | 0.0 | 0.0 | 0.00 | 0.01 | 0.00 | 95 | 1013.7 | |
| 20260905122520 | 61 | 0.0 | 0.0 | 0.00 | 0.01 | 0.00 | 94 | 1013.6 | |
| 20260905121520 | 61 | 0.0 | 0.0 | 0.00 | 0.01 | 0.00 | 94 | 1013.6 | |
| 20260905120540 | 61 | 0.0 | 0.0 | 0.00 | 0.01 | 0.00 | 94 | 1013.5 | |
| 20260905115520 | 60 | 0.0 | 0.0 | 0.00 | 0.01 | 0.00 | 94 | 1013.3 | |
| 20260905114520 | 60 | 0.0 | 0.0 | 0.00 | 0.01 | 0.00 | 94 | 1013.3 | |
| 20260905113520 | 60 | 0.0 | 0.0 | 0.00 | 0.01 | 0.00 | 93 | 1013.2 | |
| 20260905112520 | 60 | 0.0 | 0.0 | 0.00 | 0.01 | 0.00 | 93 | 1013.1 | |
| 20260905111520 | 59 | 0.0 | 0.0 | 0.00 | 0.01 | 0.00 | 92 | 1013.2 | |
| 20260905110520 | 59 | 0.0 | 0.0 | 0.00 | 0.01 | 0.00 | 92 | 1013.3 | |
| 20260905105520 | 59 | 0.0 | 0.0 | 0.00 | 0.01 | 0.00 | 92 | 1013.3 | |
| 20260905104520 | 60 | 0.0 | 0.0 | 0.00 | 0.01 | 0.00 | 92 | 1013.1 | |
| 20260905103520 | 60 | 0.0 | 0.0 | 0.00 | 0.01 | 0.00 | 92 | 1012.7 | |
| 20260905102520 | 60 | 0.0 | 0.0 | 0.00 | 0.01 | 0.00 | 92 | 1012.7 | |
| 20260905101520 | 60 | 0.0 | 0.0 | 0.00 | 0.01 | 0.00 | 92 | 1012.5 | |
| 20260905100520 | 60 | 0.0 | 0.0 | 0.00 | 0.01 | 0.00 | 92 | 1012.7 | |
| 20260905095520 | 60 | 0.0 | 0.0 | 0.00 | 0.01 | 0.00 | 92 | 1012.5 | |
| 20260905094520 | 60 | 0.0 | 0.0 | 0.00 | 0.01 | 0.00 | 91 | 1012.5 | |
| 20260905093520 | 61 | 0.0 | 0.0 | 0.00 | 0.01 | 0.00 | 91 | 1012.5 | |
| 20260905092520 | 61 | 0.0 | 0.0 | 0.00 | 0.01 | 0.00 | 91 | 1012.5 | |
| 20260905091520 | 61 | 0.0 | 0.0 | 0.00 | 0.01 | 0.00 | 91 | 1012.3 | |
| 20260905090520 | 61 | 0.0 | 0.0 | 0.00 | 0.01 | 0.00 | 91 | 1012.2 | |
| 20260905085520 | 61 | 0.0 | 0.0 | 0.00 | 0.01 | 0.00 | 91 | 1012.2 | |
| 20260905084520 | 61 | 0.0 | 0.0 | 0.00 | 0.01 | 0.00 | 91 | 1012.1 | |
| 20260905083520 | 62 | 0.0 | 0.0 | 0.00 | 0.01 | 0.00 | 91 | 1012.3 | |
| 20260905082520 | 62 | 0.0 | 0.0 | 0.00 | 0.01 | 0.00 | 90 | 1012.2 | |
| 20260905081520 | 62 | 0.0 | 0.0 | 0.00 | 0.01 | 0.00 | 91 | 1012.4 | |
| 20260905080520 | 62 | 0.0 | 0.0 | 0.00 | 0.01 | 0.00 | 90 | 1012.4 | |
| 20260905075520 | 62 | 0.0 | 0.0 | 0.00 | 0.01 | 0.00 | 90 | 1012.6 | |
| 20260905074520 | 63 | 0.0 | 0.0 | 0.00 | 0.01 | 0.00 | 90 | 1012.6 | |
| 20260905073520 | 63 | 0.0 | 0.0 | 0.00 | 0.01 | 0.00 | 90 | 1012.5 | |
| 20260905072520 | 63 | 0.0 | 0.0 | 0.00 | 0.01 | 0.00 | 90 | 1012.6 | |
| 20260905071520 | 63 | 0.0 | 0.0 | 0.00 | 0.01 | 0.00 | 90 | 1012.6 | |
| 20260905070520 | 64 | 0.0 | 0.0 | 0.00 | 0.01 | 0.00 | 90 | 1012.6 | |
| 20260905065520 | 64 | 0.0 | 0.0 | 0.00 | 0.01 | 0.00 | 90 | 1012.7 | |
| 20260905064520 | 64 | 0.0 | 0.0 | 0.00 | 0.01 | 0.00 | 90 | 1012.7 | |
| 20260905063520 | 64 | 0.0 | 0.0 | 0.00 | 0.01 | 0.00 | 90 | 1012.8 | |
| 20260905062520 | 64 | 0.0 | 0.0 | 0.00 | 0.01 | 0.00 | 90 | 1012.9 | |
| 20260905061520 | 64 | 0.0 | 0.0 | 0.00 | 0.01 | 0.00 | 90 | 1013.0 | |
| 20260905060520 | 64 | 0.0 | 0.0 | 0.00 | 0.01 | 0.00 | 90 | 1013.0 | |
| 20260905055520 | 64 | 0.0 | 0.0 | 0.00 | 0.01 | 0.00 | 90 | 1012.9 | |
| 20260905054520 | 64 | 0.0 | 0.0 | 0.00 | 0.01 | 0.00 | 89 | 1013.0 | |
| 20260905053520 | 64 | 0.0 | 0.0 | 0.00 | 0.01 | 0.00 | 89 | 1012.9 | |
| 20260905052520 | 64 | 0.0 | 0.0 | 0.00 | 0.01 | 0.00 | 89 | 1013.0 | |
| 20260905051520 | 65 | 0.0 | 0.0 | 0.00 | 0.01 | 0.00 | 89 | 1012.9 | |
| 20260905050520 | 65 | 0.0 | 0.0 | 0.00 | 0.01 | 0.00 | 89 | 1013.0 | |
| 20260905045520 | 65 | 0.0 | 0.0 | 0.00 | 0.01 | 0.00 | 89 | 1013.0 | |
| 20260905044520 | 65 | 0.0 | 0.0 | 0.00 | 0.01 | 0.00 | 88 | 1013.0 | |
| 20260905043520 | 65 | 0.0 | 0.0 | 0.00 | 0.01 | 0.00 | 88 | 1012.9 | |
| 20260905042520 | 65 | 0.0 | 0.0 | 0.00 | 0.01 | 0.00 | 88 | 1012.9 | |
| 20260905041520 | 65 | 0.0 | 0.0 | 0.00 | 0.01 | 0.00 | 88 | 1013.0 | |
| 20260905040520 | 65 | 0.0 | 0.0 | 0.00 | 0.01 | 0.00 | 87 | 1012.9 | |
| 20260905035519 | 65 | 0.0 | 0.0 | 0.00 | 0.01 | 0.01 | 87 | 1012.9 | |
| 20260905034559 | 65 | 0.0 | 0.0 | 0.00 | 0.01 | 0.01 | 86 | 1012.9 | |
| 20260905033519 | 65 | 0.0 | 0.0 | 0.00 | 0.01 | 0.01 | 86 | 1012.9 | |
| 20260905032519 | 66 | 0.0 | 0.0 | 0.00 | 0.01 | 0.01 | 87 | 1012.8 | |
| 20260905031519 | 66 | 0.0 | 0.0 | 0.00 | 0.01 | 0.01 | 85 | 1012.8 | |
| 20260905030519 | 66 | 0.0 | 0.0 | 0.00 | 0.01 | 0.01 | 85 | 1012.7 | |
| 20260905025519 | 66 | 0.0 | 0.0 | 0.00 | 0.01 | 0.01 | 84 | 1012.7 | |
| 20260905024519 | 67 | 0.0 | 0.0 | 0.00 | 0.01 | 0.01 | 84 | 1012.6 | |
| 20260905023519 | 67 | 0.0 | 0.0 | 0.00 | 0.01 | 0.01 | 83 | 1012.8 | |
| 20260905022519 | 67 | 0.0 | 0.0 | 0.00 | 0.01 | 0.01 | 83 | 1012.8 | |
| 20260905021559 | 68 | 0.0 | 0.0 | 0.00 | 0.01 | 0.01 | 83 | 1012.7 | |
| 20260905020519 | 68 | 0.0 | 0.0 | 0.00 | 0.01 | 0.01 | 82 | 1012.8 | |
| 20260905015539 | 69 | 0.0 | 0.0 | 0.00 | 0.03 | 0.01 | 82 | 1012.7 | |
| 20260905014519 | 69 | 0.0 | 0.0 | 0.00 | 0.09 | 0.01 | 82 | 1012.9 | |
| 20260905013519 | 69 | 0.0 | 0.0 | 0.00 | 0.18 | 0.01 | 81 | 1012.8 | |
| 20260905012518 | 70 | 0.0 | 0.0 | 0.00 | 0.29 | 0.01 | 81 | 1012.7 | |
| 20260905011519 | 70 | 0.0 | 0.0 | 0.00 | 0.41 | 0.01 | 81 | 1012.8 | |
| 20260905010519 | 70 | 0.0 | 0.0 | 0.00 | 0.52 | 0.01 | 81 | 1012.8 | |
| 20260905005519 | 71 | 0.0 | 0.0 | 0.00 | 0.64 | 0.01 | 80 | 1012.8 | |
| 20260905004539 | 71 | 0.0 | 0.0 | 0.00 | 0.68 | 0.01 | 80 | 1012.7 | |
| 20260905003539 | 71 | 0.0 | 0.0 | 0.00 | 0.68 | 0.01 | 79 | 1012.7 | |
| 20260905002519 | 72 | 0.0 | 0.0 | 0.00 | 0.68 | 0.01 | 78 | 1012.8 | |
| 20260905001519 | 72 | 0.0 | 0.0 | 0.00 | 0.68 | 0.01 | 78 | 1012.7 | |
| 20260905000519 | 72 | 0.0 | 0.0 | 0.00 | 0.68 | 0.01 | 77 | 1012.5 | |
| 20260904235521 | 73 | 0.0 | 0.0 | 0.00 | 0.68 | 0.01 | 77 | 1012.5 | |
| 20260904234521 | 73 | 0.0 | 0.0 | 0.00 | 0.68 | 0.01 | 76 | 1012.4 | |
| 20260904233541 | 74 | 0.0 | 0.0 | 0.00 | 0.68 | 0.01 | 76 | 1012.3 | |
| 20260904232521 | 74 | 0.0 | 0.0 | 0.00 | 0.68 | 0.01 | 75 | 1012.2 | |
| 20260904231541 | 75 | 0.0 | 0.0 | 0.00 | 0.68 | 0.01 | 74 | 1012.3 |